Location: Unspecified
(0.0000°N, 0.0000°E)
Time: 23:29:19
(UTC+00:00)

deb Explorer IX - Pass Details

Date: 25 June 2019
Orbit: 539 x 1112 km, 38.8° (Epoch: 21 July)

Event Time Altitude Azimuth Distance (km) Brightness Sun altitude
Rises 19:28:22 0° 327° (NNW) 3,786 ? -19.6°
Reaches altitude 10° 19:31:29 10° 336° (NNW) 2,761 ? -20.3°
Maximum altitude 19:37:22 33° 38° (NE) 1,489 ? -21.6°
Enters shadow 19:38:52 29° 65° (ENE) 1,564 ? -22.0°
